Starlink 5737

operational
NORAD ID: 55570 Int'l Des: 2023-020 Owner: SPXS Country: US Constellation: starlink
LEOCIRCULAR

Starlink 5737について

説明を読み込み中...

リアルタイム位置

3D地球を読み込み中...

次回通過

高度履歴

Altitude vs Time

uPlot chart will show altitude changes over time

軌道要素

1 55570U 23020B 25353.64311629 .00000265 00000-0 34699-4 0 9997
2 55570 43.0028 79.9843 0001185 267.4190 92.6516 15.02535026156870
Epoch: Dec 19, 2025 • Age: 19 hours

現在のステータス

高度 558.4 km
速度 7.58 km/s
衛星直下点 4.67°N, 167.79°W
打ち上げ日 Feb 12, 2023
運用期間 2.8 years
タイプ internet

技術仕様

分類 Payload
質量 305.00 kg
乾燥質量 290.00 kg
総質量 305.00 kg
長さ 0.20 m
直径 2.80 m
スパン 9.00 m
形状 Box + pan
製造者 SPXS
バスタイプ Starlink
フェーズステータス In Orbit
所有者/国 SPXS/US

大規模コンステレーション

Loading constellations...